Lapse_Rate
7.7 7.1 6.6 6.7 7.7 7.2 7.2 7.4 7.1 6.8 6.7 6.6 6.6 6.9 7.1 7.1 6.9 6.9 7.2 7.3 7.4 7.4 7.5 7.3 7.2 7.0 6.8 6.7 6.5 6.4 6.4 6.4 6.2 6.1 5.9 5.8 5.6 5.7 5.9 5.7 5.4 5.4 5.7
7.6 7.0 7.1 7.1 7.8 7.4 7.1 7.2 7.0 6.8 6.6 6.7 6.8 7.0 7.0 6.9 7.0 7.4 7.3 7.2 7.2 7.2 7.2 7.0 7.0 7.0 6.9 6.8 6.7 6.5 6.4 6.3 6.4 6.2 6.1 5.8 5.6 5.8 5.4 5.2 5.5 5.5 5.7
8.0 7.5 7.6 8.0 8.3 7.9 7.2 6.9 6.8 6.5 6.3 6.6 6.9 6.9 6.8 7.0 7.1 7.2 7.0 7.2 7.2 6.9 7.0 6.9 7.0 7.0 6.9 6.9 6.8 6.6 6.5 6.4 6.4 6.3 6.1 5.9 6.0 5.5 5.0 5.4 5.6 5.9 6.0
8.6 8.2 8.3 8.5 8.8 8.2 7.8 7.5 7.2 6.8 6.6 6.6 6.7 6.6 6.7 6.9 7.1 7.0 7.0 7.0 6.9 6.8 6.8 6.9 6.9 7.1 7.1 6.9 6.8 6.7 6.6 6.4 6.3 6.3 6.3 6.5 6.2 5.8 5.8 5.9 5.9 5.8 5.4
9.1 8.8 8.5 8.3 8.3 8.3 8.0 7.9 7.8 7.3 6.9 6.7 6.5 6.5 6.6 6.7 6.8 6.9 6.9 6.9 6.9 6.9 6.9 7.0 7.1 7.1 6.9 6.8 6.6 6.6 6.5 6.5 6.5 6.5 6.7 6.6 6.4 6.1 6.1 5.7 5.2 4.9 4.7
8.5 8.2 8.1 8.0 8.4 8.4 8.1 8.1 8.0 7.7 7.2 6.9 6.6 6.5 6.6 6.7 6.8 6.9 6.9 7.1 7.2 7.2 7.1 7.1 7.1 6.9 6.7 6.6 6.5 6.5 6.5 6.6 6.7 6.6 6.8 6.7 6.5 6.3 5.9 5.5 5.2 5.0 5.1
8.4 8.5 8.4 8.5 8.5 8.1 8.2 8.3 8.3 8.0 7.7 7.3 6.9 6.7 6.7 6.7 6.7 6.7 6.9 7.1 7.4 7.4 7.5 7.3 7.2 6.8 6.7 6.7 6.6 6.7 6.7 6.7 6.7 6.6 6.7 6.7 6.4 6.2 6.1 5.9 5.9 5.9 6.0
8.1 8.4 8.4 8.1 7.8 7.9 8.3 8.2 8.0 7.8 7.8 7.3 7.0 6.8 6.6 6.6 6.8 6.7 6.8 7.4 7.3 7.1 7.6 7.4 7.0 6.9 6.9 6.8 6.9 6.8 6.7 6.6 6.6 6.7 6.7 6.5 6.4 6.4 6.4 6.3 6.2 6.3 6.4
7.3 7.4 7.4 7.5 7.6 7.9 8.3 8.1 7.8 8.0 8.0 7.6 7.3 7.1 6.9 7.0 6.9 7.1 7.2 7.2 7.5 7.8 7.5 7.4 7.2 7.2 7.0 7.0 6.9 6.6 6.6 6.7 6.8 6.7 6.7 6.6 6.8 6.7 6.7 6.6 6.5 6.5 6.5
7.3 7.0 6.8 7.0 7.8 8.1 8.2 8.2 8.0 7.8 7.8 7.8 7.5 7.1 7.1 7.2 7.3 7.1 7.4 7.9 8.0 8.0 7.8 7.9 7.5 7.2 7.1 6.9 6.6 6.6 6.7 6.9 6.8 6.8 6.9 7.0 6.9 6.7 6.7 6.7 6.6 6.6 6.7
7.0 6.7 6.8 6.9 6.8 7.3 8.1 8.0 7.7 7.6 7.7 8.0 7.8 7.7 7.7 7.4 7.4 7.7 7.8 8.0 8.1 8.0 8.0 7.7 7.4 7.2 7.0 6.8 6.6 6.7 6.9 6.9 7.0 7.0 7.1 7.1 6.8 6.7 6.8 6.8 6.7 6.7 6.7
7.3 7.1 6.6 6.6 6.4 7.2 7.7 7.9 7.6 7.4 7.7 7.9 7.9 7.9 7.9 7.9 7.8 7.8 8.1 8.0 7.9 7.7 7.8 7.7 7.4 7.1 6.9 6.7 6.5 6.8 7.0 6.9 7.0 7.2 7.1 7.0 6.9 6.8 6.8 6.7 6.7 6.7 6.7
7.7 8.1 7.7 7.5 7.6 7.6 7.1 6.9 7.8 7.9 7.6 7.8 7.7 7.8 8.1 7.8 7.6 7.7 7.8 7.8 7.8 7.9 7.9 7.6 7.2 7.0 6.9 6.7 6.6 6.9 6.9 7.0 7.2 7.2 7.1 7.0 7.0 6.8 6.8 6.7 6.7 6.6 6.5
8.6 8.4 8.0 7.8 7.8 7.8 7.7 8.0 7.8 7.8 7.8 7.9 7.8 7.9 7.7 7.8 7.0 7.7 7.8 7.8 7.7 7.8 7.6 7.3 7.1 7.0 6.9 6.8 6.9 7.0 6.9 7.2 7.2 7.2 7.1 7.1 7.0 6.9 6.8 6.9 6.9 6.7 6.7
8.3 8.5 8.5 8.7 8.4 7.9 8.1 7.9 7.7 7.5 7.5 7.8 7.8 7.7 7.5 7.0 7.7 7.9 7.8 7.7 7.5 7.5 7.3 7.1 7.0 7.0 7.0 6.9 6.9 7.0 7.2 7.3 7.3 7.1 7.1 7.1 7.0 7.0 7.0 7.0 6.9 6.7 6.5
8.6 8.5 8.3 8.2 8.0 8.1 7.9 7.8 7.7 7.6 7.4 7.4 7.4 7.4 7.4 7.5 7.8 7.6 7.7 7.5 7.3 7.2 7.1 7.0 6.9 6.9 6.9 6.9 6.8 7.0 7.6 7.3 7.2 7.1 7.1 7.1 7.0 7.0 7.0 6.9 6.8 6.7 6.4
7.8 7.8 8.0 8.2 7.6 8.3 7.7 7.7 7.5 7.4 7.5 7.6 7.5 7.4 7.4 7.6 7.6 7.4 7.3 7.1 7.2 7.1 6.9 6.4 6.8 7.0 6.8 6.8 6.8 6.9 7.6 7.3 7.1 7.0 7.0 7.0 7.0 6.9 6.9 6.9 6.8 6.6 6.4
7.5 7.4 7.6 7.2 7.2 7.3 7.7 7.6 7.5 7.6 7.7 7.8 7.8 7.7 7.8 7.6 7.5 7.2 7.0 6.9 7.0 7.0 6.9 6.5 6.8 6.8 6.9 6.9 6.9 7.0 7.2 7.1 7.0 6.9 6.9 6.9 6.9 6.9 6.9 6.8 6.7 6.6 6.6
7.0 6.8 7.2 6.8 7.3 7.7 7.7 7.7 7.7 7.7 7.9 7.8 7.8 7.8 7.6 7.6 7.3 7.0 6.9 6.9 6.9 6.9 6.8 6.4 6.7 6.8 6.7 6.7 6.8 6.8 6.9 6.9 6.9 6.9 6.8 6.8 6.8 6.8 6.8 6.8 6.7 6.8 6.7
7.2 7.2 7.2 6.6 7.2 7.8 7.7 7.8 7.7 7.6 7.6 7.8 7.7 7.6 7.6 7.5 7.4 6.9 6.9 6.9 6.8 6.7 6.5 6.4 6.6 6.5 6.5 6.5 6.6 6.8 6.8 6.8 6.7 6.7 6.7 6.6 6.6 6.7 6.7 6.7 6.7 6.7 6.6
7.1 7.2 7.1 7.3 7.4 7.6 7.7 7.8 7.7 7.7 7.5 7.5 7.4 7.4 7.2 6.9 6.9 6.8 6.6 6.5 6.5 6.6 6.4 6.4 6.5 6.3 6.2 6.3 6.4 6.5 6.5 6.6 6.7 6.6 6.5 6.5 6.5 6.6 6.6 6.6 6.6 6.5 6.5
6.9 7.2 7.1 7.4 7.5 7.5 7.7 7.6 7.6 7.6 7.5 7.4 7.3 7.2 6.9 6.6 6.5 6.2 6.3 6.5 6.4 6.5 6.6 6.4 6.6 6.2 6.1 6.0 6.0 6.1 6.1 6.2 6.4 6.4 6.2 6.3 6.4 6.4 6.5 6.5 6.4 6.3 6.3
7.0 7.2 7.3 7.6 7.5 7.4 7.4 7.5 7.5 7.5 7.5 7.4 7.2 6.9 7.0 6.8 6.3 6.3 6.4 6.4 6.4 6.8 6.7 6.6 6.5 6.4 5.9 5.8 5.8 5.8 5.9 6.1 6.3 6.3 6.1 6.2 6.2 6.3 6.2 6.2 6.2 6.1 6.1
7.2 7.1 7.1 7.3 7.5 7.3 7.3 7.4 7.4 7.4 7.4 7.3 7.3 6.9 6.7 6.7 6.6 6.5 6.5 6.5 6.5 6.7 6.6 6.6 6.4 6.3 6.0 5.6 5.7 5.6 5.6 5.8 5.9 6.0 6.2 6.2 6.2 6.2 6.1 6.1 6.0 6.0 5.9
7.1 7.2 7.2 7.1 7.2 7.2 7.2 7.1 7.1 7.2 7.3 7.4 7.3 7.1 6.6 6.6 6.7 6.9 6.8 6.5 6.3 6.3 6.5 6.4 6.0 6.0 6.1 5.5 5.1 5.2 5.4 5.6 5.7 5.9 6.2 6.2 6.1 6.1 6.0 5.9 5.8 5.8 5.9
6.8 6.9 7.1 7.0 7.0 7.1 7.2 7.0 7.0 7.1 7.1 7.2 7.1 7.0 6.6 6.6 6.6 6.8 6.7 6.5 6.4 6.2 6.3 6.2 6.1 5.9 5.9 5.6 5.4 5.4 5.4 5.6 5.7 5.9 6.1 6.0 6.0 6.0 5.8 5.8 5.8 5.9 5.9
Wind_Speed
17 19 19 21 19 16 17 14 12 8 6 3 4 4 4 4 4 8 12 12 11 12 11 7 8 8 5 5 5 3 5 5 5 3 4 4 5 7 5 9 11 14 16
17 18 18 20 18 17 16 15 13 10 7 5 4 3 4 4 5 8 11 11 12 10 11 8 5 7 4 6 6 5 3 3 5 2 1 2 3 4 4 5 5 6 12
22 19 20 20 19 17 16 15 14 12 7 6 7 5 6 5 3 3 3 6 11 12 12 11 8 7 5 4 4 4 5 3 4 8 3 3 1 2 3 7 5 6 6
22 17 19 18 18 15 15 15 14 11 9 9 10 11 5 5 3 4 4 4 12 10 12 11 11 9 7 5 4 4 4 4 4 3 5 7 3 2 3 3 5 4 8
22 20 18 17 14 13 11 12 13 9 10 9 9 6 5 5 7 6 7 6 7 10 11 11 11 7 6 5 6 6 6 4 4 4 3 5 4 5 4 1 3 3 3
17 15 13 14 11 11 10 9 13 9 9 8 8 9 11 10 8 7 5 5 4 4 8 11 10 9 7 5 5 6 7 6 5 5 5 3 2 2 4 2 1 0 2
13 15 16 13 12 12 9 9 9 9 8 9 8 10 12 12 12 9 7 8 4 3 5 7 6 4 9 10 10 6 6 5 4 5 4 3 4 2 2 2 0 1 1
9 12 14 13 10 13 11 10 9 9 9 8 8 7 8 7 7 7 6 6 5 5 8 8 9 8 10 10 9 4 4 5 5 7 5 3 3 2 2 2 2 3 4
8 6 8 9 12 12 10 11 9 8 9 8 7 7 7 7 8 10 8 6 7 6 8 10 7 8 10 10 8 4 5 5 5 5 5 3 2 3 3 2 3 3 2
8 8 6 6 8 11 11 9 10 11 9 8 7 6 6 8 8 9 10 9 6 7 7 6 6 6 8 9 7 4 4 6 4 3 6 4 3 4 3 3 4 3 3
6 6 6 6 9 8 11 9 9 11 11 11 7 7 6 8 7 8 7 8 8 8 7 7 6 6 6 7 6 5 6 6 6 6 6 6 5 4 4 4 3 3 2
6 7 7 8 12 13 13 13 10 14 14 13 9 9 8 7 7 7 8 7 8 7 7 5 6 6 6 6 6 6 6 6 6 7 8 7 6 7 6 4 5 4 3
9 8 9 11 13 11 9 10 12 15 14 13 12 10 9 11 9 8 8 7 7 7 6 7 6 6 7 6 6 7 7 7 7 7 7 5 6 6 4 4 5 4 4
12 10 9 11 12 15 14 15 10 12 13 14 14 12 10 8 8 8 10 7 7 7 7 7 6 6 6 6 7 7 7 7 8 8 7 6 6 5 5 5 5 5 4
4 3 9 11 10 9 9 11 9 13 14 14 14 14 11 10 8 8 8 7 7 7 7 7 7 6 5 4 6 7 8 9 8 7 6 6 10 13 9 4 4 4 4
7 8 5 8 13 18 14 12 12 13 14 14 13 13 11 11 10 9 8 8 7 8 7 7 7 6 3 8 11 8 7 7 8 6 5 6 8 9 11 11 13 9 4
8 8 14 13 12 11 10 11 11 11 12 13 12 14 13 12 11 10 9 9 9 7 7 7 8 6 4 10 14 15 7 7 6 6 5 5 5 6 4 8 10 11 10
8 10 3 9 5 8 10 9 11 12 12 13 14 14 13 12 12 11 10 8 8 9 8 7 7 6 5 12 15 16 6 5 5 5 5 6 3 3 4 4 4 4 4
7 4 3 13 6 12 12 13 10 11 13 13 14 14 15 14 13 12 10 8 8 8 8 8 8 8 6 15 16 12 7 6 5 4 7 7 4 5 4 3 4 3 1
9 7 6 2 6 9 12 11 10 10 13 12 13 14 14 14 15 12 10 8 9 8 7 8 9 13 9 17 18 12 5 6 5 5 4 12 8 6 4 3 4 4 3
9 3 5 6 7 8 10 7 7 9 9 10 11 12 14 13 13 12 8 9 8 10 9 10 9 10 11 12 20 18 4 4 6 6 5 4 11 7 5 4 3 3 3
9 6 4 5 5 7 7 8 7 7 8 7 7 9 10 10 9 11 9 9 10 10 10 9 6 7 8 16 18 18 12 6 6 8 6 6 12 9 6 6 4 4 2
3 4 6 7 6 6 7 7 5 8 10 10 10 9 11 10 9 10 10 10 8 8 8 8 7 6 5 6 17 16 12 4 2 5 12 17 14 10 6 7 5 4 0
7 5 5 7 7 6 6 6 8 7 12 12 12 11 11 9 9 8 9 9 6 6 7 6 6 5 5 5 3 3 4 8 5 11 9 9 8 8 6 4 5 4 3
6 5 6 6 7 7 7 8 8 8 10 12 11 11 8 10 8 4 6 8 5 8 8 7 7 8 6 6 12 10 5 5 6 5 3 2 2 2 2 2 3 3 3
3 5 6 8 7 8 8 9 10 9 10 10 9 8 8 7 6 5 4 8 6 10 12 17 12 5 12 21 21 20 18 18 17 3 3 4 4 5 5 5 6 6 6
Wind_Direction
153 137 132 135 135 130 131 130 131 130 130 126 129 126 125 114 91 88 87 74 61 66 61 69 58 72 72 55 27 355 27 11 355 26 358 36 69 77 87 85 79 89 82
148 142 135 138 137 137 136 138 140 143 154 160 166 143 132 109 117 102 90 83 69 70 65 64 55 62 67 50 35 26 25 17 20 55 76 72 35 54 55 80 87 86 94
152 150 139 140 139 143 144 146 148 157 163 133 118 99 101 100 85 100 97 92 86 74 71 66 68 68 63 56 44 31 39 56 21 46 97 83 138 50 0 36 43 83 96
151 143 138 145 148 148 144 149 154 165 144 145 128 146 147 149 142 138 121 97 85 83 76 79 74 80 74 68 54 45 49 67 46 16 44 64 75 115 140 27 33 58 88
144 147 150 144 142 139 141 147 156 143 150 145 151 146 143 128 129 132 120 113 97 91 93 86 82 79 86 74 66 47 48 50 76 64 34 42 39 43 88 25 336 26 50
146 137 134 135 135 139 145 144 156 147 157 140 165 146 141 137 136 141 136 134 122 114 111 99 89 85 81 79 75 62 56 52 57 71 65 76 105 51 77 102 334 291 352
138 143 145 150 152 151 142 139 135 146 147 136 146 147 151 150 152 151 152 145 135 121 113 113 103 91 92 88 85 77 70 52 65 97 94 78 71 88 80 92 339 75 37
142 152 158 154 145 142 141 140 138 149 140 134 135 140 142 149 147 143 152 143 140 136 130 116 110 101 97 103 100 94 102 81 64 75 98 97 88 87 123 128 109 43 35
86 133 136 143 138 146 148 149 139 142 139 141 138 146 141 139 143 135 124 135 139 134 128 125 115 115 108 109 107 98 96 96 74 67 81 100 91 70 56 65 85 126 84
55 85 98 117 151 149 150 149 145 154 153 142 142 148 139 129 129 122 131 140 142 125 133 132 134 125 125 119 102 93 100 103 91 75 64 62 67 55 42 59 65 69 116
52 80 133 126 146 153 161 169 157 156 149 146 144 139 134 132 133 135 136 135 137 139 140 141 141 127 113 113 108 106 99 95 93 73 57 47 58 36 40 53 51 44 67
257 205 174 160 166 175 176 180 166 164 159 151 148 147 137 133 132 136 145 142 146 142 145 143 137 131 122 110 123 104 97 94 87 77 65 44 59 40 26 43 40 31 353
224 205 182 181 181 176 176 190 176 169 159 154 151 150 152 150 152 149 149 148 144 142 139 133 134 127 123 119 115 108 98 92 88 81 76 56 60 48 30 34 34 17 15
226 211 206 206 186 191 190 177 179 166 160 148 153 153 152 151 157 157 149 149 145 141 139 136 129 124 130 138 129 121 112 107 96 90 85 75 72 71 60 50 24 18 33
237 223 224 210 186 187 177 174 161 162 158 153 154 158 155 148 153 160 149 150 145 142 137 129 124 117 109 93 128 128 126 123 114 110 112 114 101 86 84 76 38 35 47
316 315 252 215 200 191 187 172 161 164 161 159 157 155 154 153 159 159 153 150 139 134 127 119 116 107 102 98 125 116 110 113 129 123 103 94 107 95 98 91 79 74 70
356 8 348 300 200 189 181 176 160 156 161 159 156 159 159 160 162 158 154 152 147 132 125 129 128 125 123 117 120 113 107 106 102 113 130 111 93 82 87 128 94 86 75
337 336 357 305 196 167 172 162 157 168 172 168 165 164 163 157 160 161 161 151 155 145 145 143 136 135 157 147 130 123 113 109 110 114 125 125 127 122 95 97 99 104 98
300 254 24 290 186 174 163 168 170 168 178 177 173 171 168 159 163 168 166 159 157 149 153 156 153 157 170 166 147 134 135 138 141 133 121 135 145 150 124 123 127 107 301
305 275 281 187 133 165 161 166 176 168 183 176 175 173 172 166 169 167 167 164 164 160 171 167 172 177 167 177 169 157 156 162 164 155 171 157 157 153 125 90 158 147 234
272 322 156 171 166 151 158 159 167 171 172 168 176 174 173 170 165 158 159 162 175 182 179 177 176 171 172 183 184 184 180 184 180 175 170 168 165 156 141 108 118 166 193
247 217 192 163 153 127 143 163 177 165 156 150 144 152 157 158 161 158 154 184 203 181 180 178 156 170 171 179 188 196 201 214 193 182 164 165 169 164 157 145 158 183 237
285 196 188 143 144 134 136 161 175 159 143 135 133 137 146 158 154 153 176 205 193 177 175 172 162 166 165 169 181 190 194 226 121 140 157 162 167 166 172 183 197 196 156
257 210 189 152 148 141 136 148 155 162 150 144 147 154 160 162 164 183 196 199 190 165 169 166 168 149 157 159 148 157 166 139 118 135 146 155 154 162 188 218 226 203 191
271 149 146 152 157 142 136 144 153 158 156 154 160 167 174 178 180 185 200 205 193 173 172 177 168 161 175 188 172 169 169 161 161 127 104 112 129 184 211 227 227 227 222
160 151 146 144 156 146 143 151 157 163 158 161 166 171 170 171 168 157 129 44 126 187 176 169 171 185 174 175 182 186 190 185 173 141 166 184 193 197 207 208 213 214 208